Time,TemperatureF,DewpointF,PressureIn,WindDirection,WindDirectionDegrees,WindSpeedMPH,WindSpeedGustMPH,Humidity,HourlyPrecipIn,Conditions,Clouds,dailyrainin,SoftwareType,DateUTC
2013-02-20 00:05:00,23.5,20.0,32.50,NW,309,5.0,10.0,86,0.00,,,0.00,weatherlink.com 1.10,2013-02-20 07:05:00,
2013-02-20 00:20:00,23.3,20.0,32.50,WNW,300,7.0,12.0,85,0.00,,,0.00,weatherlink.com 1.10,2013-02-20 07:20:00,
2013-02-20 00:35:00,23.0,20.0,32.50,NW,311,3.0,13.0,87,0.00,,,0.00,weatherlink.com 1.10,2013-02-20 07:35:00,
2013-02-20 00:50:00,22.7,20.0,32.50,NW,323,5.0,11.0,89,0.00,,,0.00,weatherlink.com 1.10,2013-02-20 07:50:00,
2013-02-20 01:05:00,22.6,20.0,32.50,NW,325,8.0,10.0,90,0.00,,,0.00,weatherlink.com 1.10,2013-02-20 08:05:00,
2013-02-20 01:20:00,22.5,20.0,32.50,NNW,330,7.0,11.0,89,0.00,,,0.00,weatherlink.com 1.10,2013-02-20 08:20:00,
2013-02-20 01:35:00,22.6,20.0,32.50,NW,317,10.0,11.0,88,0.00,,,0.00,weatherlink.com 1.10,2013-02-20 08:35:00,
2013-02-20 01:50:00,22.4,20.0,32.50,WNW,294,4.0,9.0,89,0.00,,,0.00,weatherlink.com 1.10,2013-02-20 08:50:00,
2013-02-20 02:05:00,22.0,19.0,32.50,NNW,333,7.0,10.0,89,0.00,,,0.00,weatherlink.com 1.10,2013-02-20 09:05:00,
2013-02-20 02:20:00,22.0,19.0,32.50,NNW,328,7.0,12.0,89,0.00,,,0.00,weatherlink.com 1.10,2013-02-20 09:20:00,
2013-02-20 02:35:00,21.8,19.0,32.50,NW,318,8.0,12.0,90,0.00,,,0.00,weatherlink.com 1.10,2013-02-20 09:35:00,
2013-02-20 02:50:00,21.6,19.0,32.50,NW,326,8.0,10.0,91,0.00,,,0.00,weatherlink.com 1.10,2013-02-20 09:50:00,
2013-02-20 03:05:00,21.6,19.0,32.50,NW,325,9.0,12.0,91,0.00,,,0.00,weatherlink.com 1.10,2013-02-20 10:05:00,
2013-02-20 03:20:00,21.7,20.0,32.50,NW,315,11.0,11.0,92,0.00,,,0.00,weatherlink.com 1.10,2013-02-20 10:20:00,
2013-02-20 03:35:00,21.8,20.0,32.50,NW,323,10.0,13.0,91,0.00,,,0.00,weatherlink.com 1.10,2013-02-20 10:35:00,
2013-02-20 03:50:00,21.8,19.0,32.50,NNW,329,8.0,13.0,90,0.00,,,0.00,weatherlink.com 1.10,2013-02-20 10:50:00,
2013-02-20 04:05:00,21.8,19.0,32.50,NW,321,8.0,10.0,90,0.00,,,0.00,weatherlink.com 1.10,2013-02-20 11:05:00,
2013-02-20 04:20:00,21.6,19.0,32.50,NW,326,6.0,10.0,91,0.00,,,0.00,weatherlink.com 1.10,2013-02-20 11:20:00,
2013-02-20 04:35:00,21.5,20.0,32.50,WNW,300,6.0,8.0,92,0.00,,,0.00,weatherlink.com 1.10,2013-02-20 11:35:00,
2013-02-20 04:50:00,21.5,20.0,32.50,NW,313,8.0,9.0,92,0.00,,,0.00,weatherlink.com 1.10,2013-02-20 11:50:00,
2013-02-20 05:05:00,21.5,20.0,32.50,NW,304,6.0,11.0,92,0.00,,,0.00,weatherlink.com 1.10,2013-02-20 12:05:00,
2013-02-20 05:20:00,21.6,20.0,32.50,NW,320,8.0,9.0,92,0.00,,,0.00,weatherlink.com 1.10,2013-02-20 12:20:00,
2013-02-20 05:35:00,21.6,20.0,32.50,NW,322,8.0,10.0,92,0.00,,,0.00,weatherlink.com 1.10,2013-02-20 12:35:00,
2013-02-20 05:50:00,21.5,20.0,32.50,NW,312,5.0,9.0,92,0.00,,,0.00,weatherlink.com 1.10,2013-02-20 12:50:00,
2013-02-20 06:05:00,21.5,20.0,32.50,NW,320,9.0,10.0,92,0.00,,,0.00,weatherlink.com 1.10,2013-02-20 13:05:00,
2013-02-20 06:20:00,21.4,20.0,32.50,NW,306,9.0,13.0,92,0.00,,,0.00,weatherlink.com 1.10,2013-02-20 13:20:00,
2013-02-20 06:35:00,21.3,19.0,32.50,WNW,302,12.0,14.0,92,0.00,,,0.00,weatherlink.com 1.10,2013-02-20 13:35:00,
2013-02-20 06:50:00,21.4,20.0,32.50,NW,305,9.0,16.0,92,0.00,,,0.00,weatherlink.com 1.10,2013-02-20 13:50:00,
2013-02-20 07:05:00,21.3,19.0,32.50,NW,317,10.0,14.0,92,0.00,,,0.00,weatherlink.com 1.10,2013-02-20 14:05:00,
2013-02-20 07:20:00,21.3,19.0,32.50,NW,315,10.0,13.0,92,0.00,,,0.00,weatherlink.com 1.10,2013-02-20 14:20:00,
2013-02-20 07:35:00,21.3,19.0,32.50,WNW,302,9.0,13.0,92,0.00,,,0.00,weatherlink.com 1.10,2013-02-20 14:35:00,
2013-02-20 07:50:00,21.2,19.0,32.50,WNW,300,7.0,10.0,92,0.00,,,0.00,weatherlink.com 1.10,2013-02-20 14:50:00,
2013-02-20 08:05:00,21.3,19.0,32.50,WNW,289,10.0,10.0,92,0.00,,,0.00,weatherlink.com 1.10,2013-02-20 15:05:00,
2013-02-20 08:20:00,21.2,19.0,32.50,NW,321,7.0,11.0,92,0.00,,,0.00,weatherlink.com 1.10,2013-02-20 15:20:00,
2013-02-20 08:35:00,21.4,20.0,32.50,NNW,331,5.0,12.0,92,0.00,,,0.00,weatherlink.com 1.10,2013-02-20 15:35:00,
2013-02-20 08:50:00,21.2,19.0,32.50,NW,318,8.0,11.0,92,0.00,,,0.00,weatherlink.com 1.10,2013-02-20 15:50:00,
2013-02-20 09:05:00,21.2,19.0,32.50,NNW,327,7.0,11.0,92,0.00,,,0.00,weatherlink.com 1.10,2013-02-20 16:05:00,
2013-02-20 09:20:00,21.8,20.0,32.50,WNW,301,5.0,12.0,91,0.00,,,0.00,weatherlink.com 1.10,2013-02-20 16:20:00,
2013-02-20 09:35:00,21.8,20.0,32.50,NW,307,7.0,12.0,91,0.00,,,0.00,weatherlink.com 1.10,2013-02-20 16:35:00,
2013-02-20 09:50:00,21.7,20.0,32.50,NW,305,5.0,13.0,92,0.00,,,0.00,weatherlink.com 1.10,2013-02-20 16:50:00,
2013-02-20 10:05:00,21.6,19.0,32.50,WNW,300,7.0,14.0,91,0.00,,,0.00,weatherlink.com 1.10,2013-02-20 17:05:00,
2013-02-20 10:20:00,21.8,20.0,32.50,NW,314,7.0,11.0,91,0.00,,,0.00,weatherlink.com 1.10,2013-02-20 17:20:00,
2013-02-20 10:50:00,22.4,20.0,32.50,NNW,340,7.0,9.0,91,0.00,,,0.00,weatherlink.com 1.10,2013-02-20 17:50:00,
2013-02-20 11:05:00,21.7,19.0,32.50,NNW,328,8.0,11.0,90,0.00,,,0.00,weatherlink.com 1.10,2013-02-20 18:05:00,
2013-02-20 11:20:00,22.2,20.0,32.50,WNW,298,6.0,9.0,91,0.00,,,0.00,weatherlink.com 1.10,2013-02-20 18:20:00,
2013-02-20 11:35:00,22.0,20.0,32.50,NW,319,4.0,8.0,90,0.00,,,0.00,weatherlink.com 1.10,2013-02-20 18:35:00,
2013-02-20 11:51:00,21.4,19.0,32.50,NW,321,6.0,9.0,90,0.00,,,0.00,weatherlink.com 1.10,2013-02-20 18:51:00,
2013-02-20 12:06:00,21.7,19.0,32.50,NW,321,10.0,10.0,90,0.00,,,0.00,weatherlink.com 1.10,2013-02-20 19:06:00,
2013-02-20 12:21:00,21.8,19.0,32.50,NW,318,6.0,11.0,88,0.00,,,0.00,weatherlink.com 1.10,2013-02-20 19:21:00,
2013-02-20 12:36:00,23.9,19.0,32.50,WNW,286,9.0,10.0,82,0.00,,,0.00,weatherlink.com 1.10,2013-02-20 19:36:00,
2013-02-20 12:51:00,23.6,18.0,32.50,WNW,288,6.0,10.0,79,0.00,,,0.00,weatherlink.com 1.10,2013-02-20 19:51:00,
2013-02-20 13:06:00,23.8,17.0,32.50,WNW,293,4.0,12.0,75,0.00,,,0.00,weatherlink.com 1.10,2013-02-20 20:06:00,
2013-02-20 13:21:00,24.2,18.0,32.50,West,261,3.0,11.0,76,0.00,,,0.00,weatherlink.com 1.10,2013-02-20 20:21:00,
2013-02-20 13:36:00,24.4,17.0,32.50,WNW,293,4.0,8.0,74,0.00,,,0.00,weatherlink.com 1.10,2013-02-20 20:36:00,
2013-02-20 13:51:00,23.8,16.0,32.50,NW,308,6.0,11.0,73,0.00,,,0.00,weatherlink.com 1.10,2013-02-20 20:51:00,
2013-02-20 14:06:00,23.8,17.0,32.50,WNW,291,8.0,11.0,75,0.00,,,0.00,weatherlink.com 1.10,2013-02-20 21:06:00,
2013-02-20 14:21:00,23.4,17.0,32.50,WNW,292,7.0,12.0,76,0.00,,,0.00,weatherlink.com 1.10,2013-02-20 21:21:00,
2013-02-20 14:36:00,23.6,17.0,32.50,WNW,301,8.0,13.0,75,0.00,,,0.00,weatherlink.com 1.10,2013-02-20 21:36:00,
2013-02-20 14:51:00,23.3,17.0,32.50,WNW,302,7.0,14.0,76,0.00,,,0.00,weatherlink.com 1.10,2013-02-20 21:51:00,
2013-02-20 15:06:00,23.5,16.0,32.50,WNW,290,12.0,19.0,74,0.00,,,0.00,weatherlink.com 1.10,2013-02-20 22:06:00,
2013-02-20 15:21:00,-999.0,-99.9,32.50,North,-999,-999.0,-999.0,-999,0.00,,,0.00,weatherlink.com 1.10,2013-02-20 22:21:00,
2013-02-20 15:36:00,23.1,16.0,32.50,WNW,292,11.0,12.0,73,0.00,,,0.00,weatherlink.com 1.10,2013-02-20 22:36:00,
2013-02-20 15:51:00,23.4,15.0,32.50,WNW,290,9.0,16.0,71,0.00,,,0.00,weatherlink.com 1.10,2013-02-20 22:51:00,
2013-02-20 16:06:00,23.4,16.0,32.50,WNW,288,8.0,15.0,74,0.00,,,0.00,weatherlink.com 1.10,2013-02-20 23:06:00,
2013-02-20 16:21:00,24.8,16.0,32.50,WNW,285,13.0,17.0,68,0.00,,,0.00,weatherlink.com 1.10,2013-02-20 23:21:00,
2013-02-20 16:36:00,24.1,16.0,32.50,WNW,287,7.0,14.0,71,0.00,,,0.00,weatherlink.com 1.10,2013-02-20 23:36:00,
2013-02-20 16:51:00,24.3,15.0,32.50,NW,304,9.0,17.0,69,0.00,,,0.00,weatherlink.com 1.10,2013-02-20 23:51:00,
2013-02-20 17:06:00,24.3,16.0,32.50,NW,305,4.0,17.0,71,0.00,,,0.00,weatherlink.com 1.10,2013-02-21 00:06:00,
2013-02-20 17:21:00,-999.0,-99.9,32.50,North,-999,-999.0,-999.0,-999,0.00,,,0.00,weatherlink.com 1.10,2013-02-21 00:21:00,
2013-02-20 17:36:00,-999.0,-99.9,32.50,North,-999,-999.0,-999.0,-999,0.00,,,0.00,weatherlink.com 1.10,2013-02-21 00:36:00,
2013-02-20 17:51:00,-999.0,-99.9,32.50,North,-999,-999.0,-999.0,-999,0.00,,,0.00,weatherlink.com 1.10,2013-02-21 00:51:00,
2013-02-20 18:06:00,21.6,15.0,32.50,WNW,287,10.0,13.0,76,0.00,,,0.00,weatherlink.com 1.10,2013-02-21 01:06:00,
2013-02-20 18:21:00,21.3,15.0,32.50,NW,313,7.0,13.0,78,0.00,,,0.00,weatherlink.com 1.10,2013-02-21 01:21:00,
2013-02-20 18:36:00,21.2,15.0,32.50,NW,325,10.0,16.0,77,0.00,,,0.00,weatherlink.com 1.10,2013-02-21 01:36:00,
2013-02-20 18:51:00,20.9,15.0,32.50,NW,309,7.0,12.0,79,0.00,,,0.00,weatherlink.com 1.10,2013-02-21 01:51:00,
2013-02-20 19:06:00,20.7,15.0,32.50,WNW,295,7.0,12.0,80,0.00,,,0.00,weatherlink.com 1.10,2013-02-21 02:06:00,
2013-02-20 19:21:00,20.2,15.0,32.50,West,280,12.0,15.0,80,0.00,,,0.00,weatherlink.com 1.10,2013-02-21 02:21:00,
2013-02-20 19:36:00,19.8,15.0,32.50,WNW,299,9.0,15.0,80,0.00,,,0.00,weatherlink.com 1.10,2013-02-21 02:36:00,
2013-02-20 19:51:00,19.6,14.0,32.50,WNW,289,10.0,12.0,80,0.00,,,0.00,weatherlink.com 1.10,2013-02-21 02:51:00,
2013-02-20 20:06:00,19.8,14.0,32.50,West,281,11.0,12.0,77,0.00,,,0.00,weatherlink.com 1.10,2013-02-21 03:06:00,
2013-02-20 20:21:00,19.9,13.0,32.50,West,279,4.0,10.0,75,0.00,,,0.00,weatherlink.com 1.10,2013-02-21 03:21:00,
2013-02-20 20:36:00,19.9,13.0,32.50,WNW,287,9.0,13.0,75,0.00,,,0.00,weatherlink.com 1.10,2013-02-21 03:36:00,
2013-02-20 20:51:00,19.9,14.0,32.50,WNW,302,7.0,14.0,76,0.00,,,0.00,weatherlink.com 1.10,2013-02-21 03:51:00,
2013-02-20 21:06:00,19.7,14.0,32.50,WNW,303,6.0,13.0,77,0.00,,,0.00,weatherlink.com 1.10,2013-02-21 04:06:00,
2013-02-20 21:21:00,19.7,13.0,32.50,WNW,288,12.0,13.0,75,0.00,,,0.00,weatherlink.com 1.10,2013-02-21 04:21:00,
2013-02-20 21:36:00,19.9,13.0,32.50,WNW,284,5.0,11.0,73,0.00,,,0.00,weatherlink.com 1.10,2013-02-21 04:36:00,
2013-02-20 21:51:00,19.8,12.0,32.50,WNW,288,5.0,10.0,73,0.00,,,0.00,weatherlink.com 1.10,2013-02-21 04:51:00,
2013-02-20 22:06:00,19.9,12.0,32.50,WNW,286,3.0,8.0,71,0.00,,,0.00,weatherlink.com 1.10,2013-02-21 05:06:00,
2013-02-20 22:21:00,19.5,13.0,32.50,WNW,301,5.0,8.0,77,0.00,,,0.00,weatherlink.com 1.10,2013-02-21 05:21:00,
2013-02-20 22:36:00,19.3,14.0,32.50,NW,312,5.0,10.0,79,0.00,,,0.00,weatherlink.com 1.10,2013-02-21 05:36:00,
2013-02-20 22:51:00,19.1,14.0,32.50,NW,306,7.0,11.0,80,0.00,,,0.00,weatherlink.com 1.10,2013-02-21 05:51:00,
2013-02-20 23:06:00,19.2,14.0,32.50,NW,304,5.0,10.0,79,0.00,,,0.00,weatherlink.com 1.10,2013-02-21 06:06:00,
2013-02-20 23:22:00,19.0,14.0,32.50,WNW,301,6.0,13.0,80,0.00,,,0.00,weatherlink.com 1.10,2013-02-21 06:22:00,
2013-02-20 23:37:00,19.1,14.0,32.50,NW,310,6.0,10.0,79,0.00,,,0.00,weatherlink.com 1.10,2013-02-21 06:37:00,
2013-02-20 23:52:00,18.8,14.0,32.50,WNW,303,5.0,11.0,80,0.00,,,0.00,weatherlink.com 1.10,2013-02-21 06:52:00,